Location: Castelnau
(43.6639°N, 0.8431°W)
Time: 22:34:16
(UTC+00:00)

Cosmos 1484 Rocket - Pass Details

Date: 13 January 2026
Orbit: 439 x 467 km, 97.6° (Epoch: 11 February)

Event Time Altitude Azimuth Distance (km) Brightness Sun altitude
Rises 06:19:53 0° 6° (N) 2,448 6.0 -13.3°
Reaches altitude 10° 06:21:57 10° 0° (N) 1,576 5.0 -12.9°
Maximum altitude 06:25:12 46° 287° (WNW) 616 2.6 -12.4°
Drops below altitude 10° 06:28:27 10° 213° (SSW) 1,579 5.0 -11.8°
Sets 06:30:31 0° 207° (SSW) 2,452 6.1 -11.4°
